Time,TemperatureF,DewpointF,PressureIn,WindDirection,WindDirectionDegrees,WindSpeedMPH,WindSpeedGustMPH,Humidity,HourlyPrecipIn,Conditions,Clouds,dailyrainin,SoftwareType,DateUTC
2013-02-12 00:07:00,32.4,32.0,29.59,South,191,0.0,-999.0,98,-99.99,,,0.00,weatherlink.com 1.10,2013-02-12 05:07:00,
2013-02-12 00:21:00,32.5,32.0,29.59,SSW,192,0.0,-999.0,98,-99.99,,,0.00,weatherlink.com 1.10,2013-02-12 05:21:00,
2013-02-12 00:36:00,32.7,33.0,29.59,West,259,0.0,-999.0,99,-99.99,,,0.00,weatherlink.com 1.10,2013-02-12 05:36:00,
2013-02-12 00:51:00,32.7,33.0,29.59,WSW,244,0.0,-999.0,99,-99.99,,,0.00,weatherlink.com 1.10,2013-02-12 05:51:00,
2013-02-12 01:06:00,32.8,32.0,29.59,WSW,241,0.0,-999.0,98,-99.99,,,0.00,weatherlink.com 1.10,2013-02-12 06:06:00,
2013-02-12 01:21:00,32.7,32.0,29.59,WSW,241,0.0,-999.0,98,-99.99,,,0.00,weatherlink.com 1.10,2013-02-12 06:21:00,
2013-02-12 01:36:00,32.5,32.0,29.58,WSW,241,0.0,-999.0,98,-99.99,,,0.00,weatherlink.com 1.10,2013-02-12 06:36:00,
2013-02-12 01:52:00,32.5,32.0,29.58,WSW,241,0.0,-999.0,98,-99.99,,,0.00,weatherlink.com 1.10,2013-02-12 06:52:00,
2013-02-12 02:07:00,32.4,32.0,29.58,WSW,241,0.0,-999.0,98,-99.99,,,0.00,weatherlink.com 1.10,2013-02-12 07:07:00,
2013-02-12 02:22:00,32.5,32.0,29.58,WSW,241,0.0,-999.0,98,-99.99,,,0.00,weatherlink.com 1.10,2013-02-12 07:22:00,
2013-02-12 02:37:00,32.5,32.0,29.57,North,355,0.0,-999.0,97,-99.99,,,0.00,weatherlink.com 1.10,2013-02-12 07:37:00,
2013-02-12 02:52:00,32.3,32.0,29.57,North,355,0.0,-999.0,97,-99.99,,,0.00,weatherlink.com 1.10,2013-02-12 07:52:00,
2013-02-12 03:07:00,32.2,32.0,29.58,North,355,0.0,-999.0,97,-99.99,,,0.00,weatherlink.com 1.10,2013-02-12 08:07:00,
2013-02-12 03:22:00,32.0,31.0,29.58,North,355,0.0,-999.0,97,-99.99,,,0.00,weatherlink.com 1.10,2013-02-12 08:22:00,
2013-02-12 03:37:00,31.9,31.0,29.58,North,355,0.0,-999.0,97,-99.99,,,0.00,weatherlink.com 1.10,2013-02-12 08:37:00,
2013-02-12 03:52:00,31.7,31.0,29.58,North,355,0.0,-999.0,97,-99.99,,,0.00,weatherlink.com 1.10,2013-02-12 08:52:00,
2013-02-12 04:07:00,31.4,31.0,29.58,North,355,0.0,-999.0,98,-99.99,,,0.00,weatherlink.com 1.10,2013-02-12 09:07:00,
2013-02-12 04:22:00,31.2,31.0,29.57,NW,309,0.0,-999.0,98,-99.99,,,0.00,weatherlink.com 1.10,2013-02-12 09:22:00,
2013-02-12 04:39:00,31.1,31.0,29.57,NW,309,0.0,-999.0,98,-99.99,,,0.00,weatherlink.com 1.10,2013-02-12 09:39:00,
2013-02-12 04:52:00,30.9,30.0,29.57,NW,309,0.0,-999.0,98,-99.99,,,0.00,weatherlink.com 1.10,2013-02-12 09:52:00,
2013-02-12 05:07:00,30.8,30.0,29.57,West,266,0.0,-999.0,98,-99.99,,,0.00,weatherlink.com 1.10,2013-02-12 10:07:00,
2013-02-12 05:22:00,30.8,30.0,29.57,West,266,0.0,-999.0,98,-99.99,,,0.00,weatherlink.com 1.10,2013-02-12 10:22:00,
2013-02-12 05:37:00,30.8,30.0,29.56,SW,231,1.0,-999.0,98,-99.99,,,0.00,weatherlink.com 1.10,2013-02-12 10:37:00,
2013-02-12 05:52:00,30.8,30.0,29.57,SW,231,0.0,-999.0,97,-99.99,,,0.00,weatherlink.com 1.10,2013-02-12 10:52:00,
2013-02-12 06:07:00,30.7,30.0,29.56,SW,231,0.0,-999.0,97,-99.99,,,0.00,weatherlink.com 1.10,2013-02-12 11:07:00,
2013-02-12 06:22:00,30.8,30.0,29.57,SSW,202,1.0,-999.0,97,-99.99,,,0.00,weatherlink.com 1.10,2013-02-12 11:22:00,
2013-02-12 06:37:00,30.8,30.0,29.57,SSW,194,2.0,-999.0,96,-99.99,,,0.00,weatherlink.com 1.10,2013-02-12 11:37:00,
2013-02-12 06:52:00,30.7,30.0,29.57,SSW,211,0.0,-999.0,96,-99.99,,,0.00,weatherlink.com 1.10,2013-02-12 11:52:00,
2013-02-12 07:07:00,30.6,30.0,29.57,SSW,195,2.0,-999.0,96,-99.99,,,0.00,weatherlink.com 1.10,2013-02-12 12:07:00,
2013-02-12 07:22:00,30.6,30.0,29.57,South,190,0.0,-999.0,96,-99.99,,,0.00,weatherlink.com 1.10,2013-02-12 12:22:00,
2013-02-12 07:37:00,30.5,30.0,29.57,South,183,0.0,-999.0,96,-99.99,,,0.00,weatherlink.com 1.10,2013-02-12 12:37:00,
2013-02-12 07:52:00,30.5,30.0,29.58,SW,228,1.0,-999.0,96,-99.99,,,0.00,weatherlink.com 1.10,2013-02-12 12:52:00,
2013-02-12 08:07:00,30.7,30.0,29.58,SSW,194,0.0,-999.0,96,-99.99,,,0.00,weatherlink.com 1.10,2013-02-12 13:07:00,
2013-02-12 08:22:00,31.0,30.0,29.57,SSE,151,2.0,-999.0,96,-99.99,,,0.00,weatherlink.com 1.10,2013-02-12 13:22:00,
2013-02-12 08:37:00,31.4,30.0,29.57,West,266,0.0,-999.0,96,-99.99,,,0.00,weatherlink.com 1.10,2013-02-12 13:37:00,
2013-02-12 08:52:00,31.7,31.0,29.58,South,187,0.0,-999.0,95,-99.99,,,0.00,weatherlink.com 1.10,2013-02-12 13:52:00,
2013-02-12 09:08:00,32.0,31.0,29.58,SSW,192,0.0,-999.0,95,-99.99,,,0.00,weatherlink.com 1.10,2013-02-12 14:08:00,
2013-02-12 09:22:00,32.2,30.0,29.58,South,190,2.0,-999.0,93,-99.99,,,0.00,weatherlink.com 1.10,2013-02-12 14:22:00,
2013-02-12 09:37:00,32.3,31.0,29.58,SE,139,1.0,-999.0,94,-99.99,,,0.00,weatherlink.com 1.10,2013-02-12 14:37:00,
2013-02-12 09:52:00,32.4,31.0,29.59,SE,146,2.0,-999.0,94,-99.99,,,0.00,weatherlink.com 1.10,2013-02-12 14:52:00,
2013-02-12 10:07:00,32.5,31.0,29.60,South,191,0.0,-999.0,95,-99.99,,,0.00,weatherlink.com 1.10,2013-02-12 15:07:00,
2013-02-12 10:22:00,32.6,31.0,29.60,WNW,294,0.0,-999.0,95,-99.99,,,0.00,weatherlink.com 1.10,2013-02-12 15:22:00,
2013-02-12 10:37:00,32.9,32.0,29.61,SE,134,0.0,-999.0,95,-99.99,,,0.00,weatherlink.com 1.10,2013-02-12 15:37:00,
2013-02-12 10:52:00,33.4,32.0,29.61,NW,318,0.0,-999.0,95,-99.99,,,0.00,weatherlink.com 1.10,2013-02-12 15:52:00,
2013-02-12 11:08:00,34.1,32.0,29.61,NNW,334,2.0,-999.0,92,-99.99,,,0.00,weatherlink.com 1.10,2013-02-12 16:08:00,
2013-02-12 11:23:00,34.3,32.0,29.62,WNW,296,0.0,-999.0,91,-99.99,,,0.00,weatherlink.com 1.10,2013-02-12 16:23:00,
2013-02-12 11:37:00,34.3,32.0,29.61,WNW,284,0.0,-999.0,91,-99.99,,,0.00,weatherlink.com 1.10,2013-02-12 16:37:00,
2013-02-12 11:52:00,34.3,32.0,29.62,NW,316,2.0,-999.0,91,-99.99,,,0.00,weatherlink.com 1.10,2013-02-12 16:52:00,
2013-02-12 12:07:00,34.1,32.0,29.62,WSW,253,1.0,-999.0,91,-99.99,,,0.00,weatherlink.com 1.10,2013-02-12 17:07:00,
2013-02-12 12:22:00,33.9,32.0,29.62,West,264,0.0,-999.0,91,-99.99,,,0.00,weatherlink.com 1.10,2013-02-12 17:22:00,
2013-02-12 12:38:00,33.7,32.0,29.62,NNW,347,2.0,-999.0,92,-99.99,,,0.00,weatherlink.com 1.10,2013-02-12 17:38:00,
2013-02-12 12:52:00,33.7,32.0,29.63,West,261,1.0,-999.0,92,-99.99,,,0.00,weatherlink.com 1.10,2013-02-12 17:52:00,
2013-02-12 13:07:00,33.6,31.0,29.63,NW,323,1.0,-999.0,91,-99.99,,,0.00,weatherlink.com 1.10,2013-02-12 18:07:00,
2013-02-12 13:23:00,33.5,31.0,29.64,WSW,248,0.0,-999.0,90,-99.99,,,0.00,weatherlink.com 1.10,2013-02-12 18:23:00,
2013-02-12 13:38:00,33.5,31.0,29.64,SW,232,1.0,-999.0,91,-99.99,,,0.00,weatherlink.com 1.10,2013-02-12 18:38:00,
2013-02-12 13:53:00,33.5,31.0,29.64,WSW,254,1.0,-999.0,91,-99.99,,,0.00,weatherlink.com 1.10,2013-02-12 18:53:00,
2013-02-12 14:08:00,33.5,31.0,29.65,WSW,254,0.0,-999.0,90,-99.99,,,0.00,weatherlink.com 1.10,2013-02-12 19:08:00,
2013-02-12 14:24:00,33.4,31.0,29.65,South,185,0.0,-999.0,90,-99.99,,,0.00,weatherlink.com 1.10,2013-02-12 19:24:00,
2013-02-12 14:38:00,33.3,31.0,29.66,South,183,0.0,-999.0,91,-99.99,,,0.00,weatherlink.com 1.10,2013-02-12 19:38:00,
2013-02-12 14:53:00,33.2,31.0,29.67,SW,232,0.0,-999.0,91,-99.99,,,0.00,weatherlink.com 1.10,2013-02-12 19:53:00,
2013-02-12 15:08:00,33.3,31.0,29.67,NW,307,1.0,-999.0,90,-99.99,,,0.00,weatherlink.com 1.10,2013-02-12 20:08:00,
2013-02-12 15:23:00,33.3,31.0,29.68,NW,307,0.0,-999.0,91,-99.99,,,0.00,weatherlink.com 1.10,2013-02-12 20:23:00,
2013-02-12 15:38:00,33.1,31.0,29.68,NW,306,0.0,-999.0,92,-99.99,,,0.00,weatherlink.com 1.10,2013-02-12 20:38:00,
2013-02-12 15:53:00,33.1,31.0,29.68,West,271,3.0,-999.0,90,-99.99,,,0.00,weatherlink.com 1.10,2013-02-12 20:53:00,
2013-02-12 16:08:00,33.1,30.0,29.68,WNW,288,1.0,-999.0,89,-99.99,,,0.00,weatherlink.com 1.10,2013-02-12 21:08:00,
2013-02-12 16:23:00,33.1,30.0,29.68,SW,231,0.0,-999.0,89,-99.99,,,0.00,weatherlink.com 1.10,2013-02-12 21:23:00,
2013-02-12 16:38:00,33.2,30.0,29.68,NW,310,0.0,-999.0,89,-99.99,,,0.00,weatherlink.com 1.10,2013-02-12 21:38:00,
2013-02-12 16:53:00,33.1,30.0,29.69,SW,224,0.0,-999.0,88,-99.99,,,0.00,weatherlink.com 1.10,2013-02-12 21:53:00,
2013-02-12 17:08:00,33.0,30.0,29.69,NNW,345,3.0,-999.0,88,-99.99,,,0.00,weatherlink.com 1.10,2013-02-12 22:08:00,
2013-02-12 17:23:00,33.0,30.0,29.70,South,171,1.0,-999.0,88,-99.99,,,0.00,weatherlink.com 1.10,2013-02-12 22:23:00,
2013-02-12 17:38:00,32.8,30.0,29.70,SSW,192,0.0,-999.0,89,-99.99,,,0.00,weatherlink.com 1.10,2013-02-12 22:38:00,
2013-02-12 17:53:00,32.8,30.0,29.71,NNW,338,0.0,-999.0,88,-99.99,,,0.00,weatherlink.com 1.10,2013-02-12 22:53:00,
2013-02-12 18:08:00,32.8,30.0,29.71,NNW,338,0.0,-999.0,89,-99.99,,,0.00,weatherlink.com 1.10,2013-02-12 23:08:00,
2013-02-12 18:23:00,32.7,30.0,29.72,SSW,200,0.0,-999.0,88,-99.99,,,0.00,weatherlink.com 1.10,2013-02-12 23:23:00,
2013-02-12 18:38:00,32.8,29.0,29.72,NW,310,2.0,-999.0,87,-99.99,,,0.00,weatherlink.com 1.10,2013-02-12 23:38:00,
2013-02-12 18:53:00,32.8,29.0,29.72,SW,219,0.0,-999.0,86,-99.99,,,0.00,weatherlink.com 1.10,2013-02-12 23:53:00,
2013-02-12 19:08:00,32.6,29.0,29.73,SW,219,0.0,-999.0,87,-99.99,,,0.00,weatherlink.com 1.10,2013-02-13 00:08:00,
2013-02-12 19:23:00,32.5,29.0,29.73,WSW,243,0.0,-999.0,87,-99.99,,,0.00,weatherlink.com 1.10,2013-02-13 00:23:00,
2013-02-12 19:38:00,32.4,29.0,29.73,WSW,243,0.0,-999.0,88,-99.99,,,0.00,weatherlink.com 1.10,2013-02-13 00:38:00,
2013-02-12 19:53:00,32.3,29.0,29.74,WSW,244,2.0,-999.0,87,-99.99,,,0.00,weatherlink.com 1.10,2013-02-13 00:53:00,
2013-02-12 20:08:00,32.3,29.0,29.75,North,350,1.0,-999.0,86,-99.99,,,0.00,weatherlink.com 1.10,2013-02-13 01:08:00,
2013-02-12 20:24:00,32.3,28.0,29.75,SSE,162,1.0,-999.0,85,-99.99,,,0.00,weatherlink.com 1.10,2013-02-13 01:24:00,
2013-02-12 20:39:00,32.3,29.0,29.76,South,188,0.0,-999.0,86,-99.99,,,0.00,weatherlink.com 1.10,2013-02-13 01:39:00,
2013-02-12 20:54:00,32.0,29.0,29.77,South,179,1.0,-999.0,87,-99.99,,,0.00,weatherlink.com 1.10,2013-02-13 01:54:00,
2013-02-12 21:08:00,31.9,28.0,29.78,South,186,0.0,-999.0,86,-99.99,,,0.00,weatherlink.com 1.10,2013-02-13 02:08:00,
2013-02-12 21:23:00,31.6,28.0,29.78,WSW,252,1.0,-999.0,85,-99.99,,,0.00,weatherlink.com 1.10,2013-02-13 02:23:00,
2013-02-12 21:38:00,31.5,28.0,29.78,NW,306,1.0,-999.0,86,-99.99,,,0.00,weatherlink.com 1.10,2013-02-13 02:38:00,
2013-02-12 21:53:00,31.3,27.0,29.79,SW,231,1.0,-999.0,84,-99.99,,,0.00,weatherlink.com 1.10,2013-02-13 02:53:00,
2013-02-12 22:09:00,31.2,27.0,29.78,SW,215,1.0,-999.0,84,-99.99,,,0.00,weatherlink.com 1.10,2013-02-13 03:09:00,
2013-02-12 22:23:00,31.2,27.0,29.78,North,360,1.0,-999.0,84,-99.99,,,0.00,weatherlink.com 1.10,2013-02-13 03:23:00,
2013-02-12 22:38:00,30.9,27.0,29.78,NNW,346,0.0,-999.0,86,-99.99,,,0.00,weatherlink.com 1.10,2013-02-13 03:38:00,
2013-02-12 22:54:00,30.8,27.0,29.77,South,190,3.0,-999.0,86,-99.99,,,0.00,weatherlink.com 1.10,2013-02-13 03:54:00,
2013-02-12 23:09:00,30.6,27.0,29.77,SE,139,4.0,-999.0,85,-99.99,,,0.00,weatherlink.com 1.10,2013-02-13 04:09:00,
2013-02-12 23:23:00,30.6,28.0,29.77,SE,144,0.0,-999.0,88,-99.99,,,0.00,weatherlink.com 1.10,2013-02-13 04:23:00,
2013-02-12 23:38:00,30.3,27.0,29.77,North,11,0.0,-999.0,86,-99.99,,,0.00,weatherlink.com 1.10,2013-02-13 04:38:00,
2013-02-12 23:54:00,30.3,27.0,29.77,North,355,1.0,-999.0,86,-99.99,,,0.00,weatherlink.com 1.10,2013-02-13 04:54:00,